Time,TemperatureF,DewpointF,PressureIn,WindDirection,WindDirectionDegrees,WindSpeedMPH,WindSpeedGustMPH,Humidity,HourlyPrecipIn,Conditions,Clouds,dailyrainin,SolarRadiationWatts/m^2,SoftwareType,DateUTC
2013-08-07 11:21:00,71.0,53.5,28.98,NNW,344,9.0,-999.0,54,4.33,,,4.33,1044,WeatherHawk,2013-08-07 16:21:00,
2013-08-07 11:30:00,70.9,52.9,28.98,North,351,10.0,-999.0,53,4.33,,,4.33,1102,WeatherHawk,2013-08-07 16:30:00,
2013-08-07 11:35:00,70.3,52.9,28.99,North,349,10.0,-999.0,54,0.00,,,4.33,494,WeatherHawk,2013-08-07 16:35:00,
2013-08-07 11:40:00,69.8,53.4,28.98,North,4,9.0,-999.0,56,0.00,,,4.33,570,WeatherHawk,2013-08-07 16:40:00,
2013-08-07 11:45:00,69.8,54.3,28.98,NE,41,10.0,-999.0,58,0.00,,,4.33,569,WeatherHawk,2013-08-07 16:45:00,
2013-08-07 11:50:00,71.6,57.0,28.98,NW,304,9.0,-999.0,60,0.00,,,4.33,358,WeatherHawk,2013-08-07 16:50:00,
2013-08-07 11:55:00,69.4,55.3,28.99,WNW,288,6.0,-999.0,61,0.00,,,4.33,252,WeatherHawk,2013-08-07 16:55:00,
2013-08-07 12:00:00,68.8,56.1,29.00,WNW,300,7.0,-999.0,64,0.00,,,4.33,260,WeatherHawk,2013-08-07 17:00:00,
2013-08-07 12:05:00,68.0,55.4,28.99,NW,323,7.0,-999.0,64,0.00,,,4.33,324,WeatherHawk,2013-08-07 17:05:00,
2013-08-07 12:10:00,69.9,58.1,29.00,NNW,332,6.0,-999.0,66,0.00,,,4.33,384,WeatherHawk,2013-08-07 17:10:00,
2013-08-07 12:15:00,70.2,57.0,29.00,WNW,290,8.0,-999.0,63,0.00,,,4.33,382,WeatherHawk,2013-08-07 17:15:00,
2013-08-07 12:20:00,69.4,54.5,29.18,NNW,339,7.0,-999.0,59,0.00,,,4.33,370,WeatherHawk,2013-08-07 17:20:00,
2013-08-07 12:30:00,68.2,57.2,29.00,NW,325,7.0,-999.0,68,0.00,,,4.33,279,WeatherHawk,2013-08-07 17:30:00,
2013-08-07 12:35:00,67.4,55.6,29.00,NW,308,9.0,-999.0,66,0.00,,,4.33,369,WeatherHawk,2013-08-07 17:35:00,
2013-08-07 12:40:00,67.8,55.6,28.99,North,2,9.0,-999.0,65,0.00,,,4.33,324,WeatherHawk,2013-08-07 17:40:00,
2013-08-07 12:45:00,68.5,56.3,29.00,WNW,303,5.0,-999.0,65,0.00,,,4.33,381,WeatherHawk,2013-08-07 17:45:00,
2013-08-07 12:50:00,68.2,55.9,29.01,WNW,303,8.0,-999.0,65,0.00,,,4.33,427,WeatherHawk,2013-08-07 17:50:00,
2013-08-07 12:55:00,69.5,55.4,29.01,NW,306,7.0,-999.0,61,0.00,,,4.33,405,WeatherHawk,2013-08-07 17:55:00,
2013-08-07 13:00:00,69.5,55.5,29.00,NW,310,6.0,-999.0,61,0.00,,,4.33,364,WeatherHawk,2013-08-07 18:00:00,
2013-08-07 13:05:00,69.0,56.3,29.01,NW,324,9.0,-999.0,64,0.00,,,4.33,341,WeatherHawk,2013-08-07 18:05:00,
2013-08-07 13:10:00,68.6,55.5,29.00,NW,319,10.0,-999.0,63,0.00,,,4.33,402,WeatherHawk,2013-08-07 18:10:00,
2013-08-07 13:15:00,69.4,56.3,29.01,NW,312,6.0,-999.0,63,0.00,,,4.33,437,WeatherHawk,2013-08-07 18:15:00,
2013-08-07 13:20:00,69.4,56.3,29.00,NW,307,6.0,-999.0,63,0.00,,,4.33,463,WeatherHawk,2013-08-07 18:20:00,
2013-08-07 13:25:00,68.8,55.2,29.00,NW,326,8.0,-999.0,62,0.00,,,4.33,313,WeatherHawk,2013-08-07 18:25:00,
2013-08-07 13:30:00,68.9,56.6,29.01,NW,312,8.0,-999.0,65,0.00,,,4.33,161,WeatherHawk,2013-08-07 18:30:00,
2013-08-07 13:35:00,69.3,57.4,29.01,NW,319,6.0,-999.0,66,0.00,,,4.33,234,WeatherHawk,2013-08-07 18:35:00,
2013-08-07 13:40:00,67.6,55.4,29.01,NW,309,9.0,-999.0,65,0.00,,,4.33,353,WeatherHawk,2013-08-07 18:40:00,
2013-08-07 13:45:00,67.7,54.2,29.01,NW,315,11.0,-999.0,62,0.00,,,4.33,328,WeatherHawk,2013-08-07 18:45:00,
2013-08-07 13:50:00,68.0,54.1,29.01,WNW,282,8.0,-999.0,61,0.00,,,4.33,950,WeatherHawk,2013-08-07 18:50:00,
2013-08-07 13:55:00,68.7,53.8,29.01,WNW,299,8.0,-999.0,59,0.00,,,4.33,918,WeatherHawk,2013-08-07 18:55:00,
2013-08-07 14:00:00,70.7,53.7,29.02,NW,311,5.0,-999.0,55,0.00,,,4.33,1164,WeatherHawk,2013-08-07 19:00:00,
2013-08-07 14:05:00,69.6,52.2,29.01,NW,319,5.0,-999.0,54,0.00,,,4.33,568,WeatherHawk,2013-08-07 19:05:00,
2013-08-07 14:10:00,69.5,52.1,29.01,WNW,294,6.0,-999.0,54,0.00,,,4.33,334,WeatherHawk,2013-08-07 19:10:00,
2013-08-07 14:15:00,73.0,54.8,29.00,WSW,238,4.0,-999.0,53,0.00,,,4.33,444,WeatherHawk,2013-08-07 19:15:00,
2013-08-07 14:20:00,72.0,52.3,29.01,West,277,4.0,-999.0,50,0.00,,,4.33,430,WeatherHawk,2013-08-07 19:20:00,
2013-08-07 14:25:00,70.5,48.8,29.01,WNW,288,6.0,-999.0,46,0.00,,,4.33,968,WeatherHawk,2013-08-07 19:25:00,
2013-08-07 14:30:00,74.1,52.0,29.01,WNW,303,6.0,-999.0,46,0.00,,,4.33,1158,WeatherHawk,2013-08-07 19:30:00,
2013-08-07 14:35:00,73.4,50.8,29.01,WNW,286,9.0,-999.0,45,0.00,,,4.33,1108,WeatherHawk,2013-08-07 19:35:00,
2013-08-07 14:40:00,74.0,50.7,29.01,WNW,293,5.0,-999.0,44,0.00,,,4.33,595,WeatherHawk,2013-08-07 19:40:00,
2013-08-07 14:45:00,73.2,50.6,29.01,NNW,338,5.0,-999.0,45,0.00,,,4.33,371,WeatherHawk,2013-08-07 19:45:00,
2013-08-07 14:50:00,72.9,50.9,29.00,NW,326,7.0,-999.0,46,0.00,,,4.33,359,WeatherHawk,2013-08-07 19:50:00,
2013-08-07 14:55:00,74.2,52.6,29.00,NW,310,5.0,-999.0,47,0.00,,,4.33,367,WeatherHawk,2013-08-07 19:55:00,
2013-08-07 15:00:00,72.4,49.8,29.00,WSW,253,6.0,-999.0,45,0.00,,,4.33,374,WeatherHawk,2013-08-07 20:00:00,
2013-08-07 15:05:00,76.5,52.4,29.00,West,280,4.0,-999.0,43,0.00,,,4.33,946,WeatherHawk,2013-08-07 20:05:00,
2013-08-07 15:10:00,73.0,47.2,28.99,WNW,294,7.0,-999.0,40,0.00,,,4.33,946,WeatherHawk,2013-08-07 20:10:00,
2013-08-07 15:15:00,75.8,49.8,29.00,WNW,285,8.0,-999.0,40,0.00,,,4.33,281,WeatherHawk,2013-08-07 20:15:00,
2013-08-07 15:20:00,74.3,50.3,29.00,NW,304,9.0,-999.0,43,0.00,,,4.33,246,WeatherHawk,2013-08-07 20:20:00,
2013-08-07 15:25:00,75.6,52.1,29.00,WNW,299,6.0,-999.0,44,0.00,,,4.33,910,WeatherHawk,2013-08-07 20:25:00,
2013-08-07 15:30:00,75.2,51.1,28.99,NW,306,6.0,-999.0,43,0.00,,,4.33,712,WeatherHawk,2013-08-07 20:30:00,
2013-08-07 15:35:00,74.1,50.1,29.00,NW,321,6.0,-999.0,43,0.00,,,4.33,187,WeatherHawk,2013-08-07 20:35:00,
2013-08-07 15:40:00,77.0,53.4,28.98,NNW,342,4.0,-999.0,44,0.00,,,4.33,782,WeatherHawk,2013-08-07 20:40:00,
2013-08-07 15:45:00,75.0,49.7,28.99,WNW,290,6.0,-999.0,41,0.00,,,4.33,778,WeatherHawk,2013-08-07 20:45:00,
2013-08-07 15:50:00,76.3,50.1,28.99,WNW,296,7.0,-999.0,40,0.00,,,4.33,219,WeatherHawk,2013-08-07 20:50:00,
2013-08-07 15:55:00,75.9,49.9,28.99,SW,224,8.0,-999.0,40,0.00,,,4.33,411,WeatherHawk,2013-08-07 20:55:00,
2013-08-07 16:00:00,78.1,52.5,28.99,West,273,5.0,-999.0,41,0.00,,,4.33,738,WeatherHawk,2013-08-07 21:00:00,